Time,TemperatureF,DewpointF,PressureIn,WindDirection,WindDirectionDegrees,WindSpeedMPH,WindSpeedGustMPH,Humidity,HourlyPrecipIn,Conditions,Clouds,dailyrainin,SoftwareType,DateUTC
2013-09-02 00:03:00,60.5,58.0,29.72,NNW,338,10.0,18.0,90,0.00,,,0.04,weatherlink.com 1.10,2013-09-02 04:03:00,
2013-09-02 00:18:00,60.4,57.0,29.72,NNW,348,12.0,20.0,89,0.00,,,0.04,weatherlink.com 1.10,2013-09-02 04:18:00,
2013-09-02 00:33:00,60.2,57.0,29.72,NNE,17,12.0,16.0,89,0.00,,,0.04,weatherlink.com 1.10,2013-09-02 04:33:00,
2013-09-02 00:48:00,59.7,57.0,29.73,NNW,347,19.0,19.0,89,0.00,,,0.04,weatherlink.com 1.10,2013-09-02 04:48:00,
2013-09-02 01:03:00,59.1,56.0,29.73,NW,318,10.0,21.0,89,0.00,,,0.04,weatherlink.com 1.10,2013-09-02 05:03:00,
2013-09-02 01:18:00,58.7,56.0,29.73,NW,319,15.0,20.0,90,0.00,,,0.04,weatherlink.com 1.10,2013-09-02 05:18:00,
2013-09-02 01:33:00,58.8,56.0,29.73,North,349,12.0,17.0,91,0.00,,,0.04,weatherlink.com 1.10,2013-09-02 05:33:00,
2013-09-02 01:48:00,58.6,56.0,29.74,NW,326,15.0,19.0,91,0.00,,,0.04,weatherlink.com 1.10,2013-09-02 05:48:00,
2013-09-02 02:03:00,58.3,56.0,29.74,NW,325,8.0,17.0,92,0.00,,,0.04,weatherlink.com 1.10,2013-09-02 06:03:00,
2013-09-02 02:18:00,57.9,55.0,29.74,NNW,329,12.0,21.0,91,0.00,,,0.04,weatherlink.com 1.10,2013-09-02 06:18:00,
2013-09-02 02:33:00,57.5,55.0,29.74,NNW,347,12.0,19.0,90,0.00,,,0.00,weatherlink.com 1.10,2013-09-02 06:33:00,
2013-09-02 02:48:00,57.4,55.0,29.73,North,355,10.0,18.0,91,0.00,,,0.00,weatherlink.com 1.10,2013-09-02 06:48:00,
2013-09-02 03:03:00,57.3,54.0,29.74,North,355,15.0,20.0,89,0.00,,,0.00,weatherlink.com 1.10,2013-09-02 07:03:00,
2013-09-02 03:18:00,57.1,54.0,29.74,NNW,344,12.0,19.0,88,0.00,,,0.00,weatherlink.com 1.10,2013-09-02 07:18:00,
2013-09-02 03:33:00,56.9,53.0,29.74,NW,323,11.0,20.0,88,0.00,,,0.00,weatherlink.com 1.10,2013-09-02 07:33:00,
2013-09-02 03:49:00,56.8,53.0,29.75,NNW,333,12.0,19.0,88,0.00,,,0.00,weatherlink.com 1.10,2013-09-02 07:49:00,
2013-09-02 04:04:00,56.8,53.0,29.75,NNW,332,13.0,18.0,88,0.00,,,0.00,weatherlink.com 1.10,2013-09-02 08:04:00,
2013-09-02 04:19:00,56.6,53.0,29.75,NW,319,12.0,18.0,88,0.00,,,0.00,weatherlink.com 1.10,2013-09-02 08:19:00,
2013-09-02 04:34:00,56.6,53.0,29.75,NNW,337,11.0,21.0,87,0.00,,,0.00,weatherlink.com 1.10,2013-09-02 08:34:00,
2013-09-02 04:49:00,56.5,53.0,29.76,NW,317,16.0,20.0,87,0.00,,,0.00,weatherlink.com 1.10,2013-09-02 08:49:00,
2013-09-02 05:04:00,56.3,52.0,29.76,NNW,344,18.0,24.0,85,0.00,,,0.00,weatherlink.com 1.10,2013-09-02 09:04:00,
2013-09-02 05:19:00,56.2,52.0,29.76,NNW,339,17.0,20.0,86,0.00,,,0.00,weatherlink.com 1.10,2013-09-02 09:19:00,
2013-09-02 05:34:00,56.0,52.0,29.76,NNW,339,13.0,22.0,87,0.00,,,0.00,weatherlink.com 1.10,2013-09-02 09:34:00,
2013-09-02 05:49:00,56.0,52.0,29.77,NNW,336,15.0,22.0,86,0.00,,,0.00,weatherlink.com 1.10,2013-09-02 09:49:00,
2013-09-02 06:04:00,55.8,52.0,29.77,NW,322,12.0,20.0,87,0.00,,,0.00,weatherlink.com 1.10,2013-09-02 10:04:00,
2013-09-02 06:19:00,55.8,52.0,29.77,North,355,15.0,19.0,86,0.00,,,0.00,weatherlink.com 1.10,2013-09-02 10:19:00,
2013-09-02 06:34:00,55.9,52.0,29.77,NW,320,16.0,22.0,85,0.00,,,0.00,weatherlink.com 1.10,2013-09-02 10:34:00,
2013-09-02 06:49:00,56.0,51.0,29.77,NW,318,16.0,24.0,84,0.00,,,0.00,weatherlink.com 1.10,2013-09-02 10:49:00,
2013-09-02 07:04:00,56.0,51.0,29.77,NW,323,11.0,24.0,83,0.00,,,0.00,weatherlink.com 1.10,2013-09-02 11:04:00,
2013-09-02 07:19:00,56.0,51.0,29.78,NNW,327,17.0,20.0,84,0.00,,,0.00,weatherlink.com 1.10,2013-09-02 11:19:00,
2013-09-02 07:34:00,55.9,51.0,29.78,North,349,16.0,23.0,84,0.00,,,0.00,weatherlink.com 1.10,2013-09-02 11:34:00,
2013-09-02 07:49:00,55.9,51.0,29.79,NW,319,13.0,23.0,84,0.00,,,0.00,weatherlink.com 1.10,2013-09-02 11:49:00,
2013-09-02 08:04:00,55.9,52.0,29.78,NW,322,11.0,21.0,85,0.00,,,0.00,weatherlink.com 1.10,2013-09-02 12:04:00,
2013-09-02 08:19:00,55.9,52.0,29.78,North,355,22.0,23.0,85,0.00,,,0.00,weatherlink.com 1.10,2013-09-02 12:19:00,
2013-09-02 08:34:00,55.9,52.0,29.79,NNW,337,11.0,21.0,86,0.00,,,0.00,weatherlink.com 1.10,2013-09-02 12:34:00,
2013-09-02 08:49:00,55.6,52.0,29.79,NNW,329,17.0,21.0,87,0.00,,,0.00,weatherlink.com 1.10,2013-09-02 12:49:00,
2013-09-02 09:04:00,55.4,52.0,29.79,NW,321,14.0,20.0,87,0.00,,,0.00,weatherlink.com 1.10,2013-09-02 13:04:00,
2013-09-02 09:19:00,55.3,52.0,29.80,NW,316,15.0,23.0,88,0.00,,,0.00,weatherlink.com 1.10,2013-09-02 13:19:00,
2013-09-02 09:34:00,55.7,52.0,29.80,NNW,340,19.0,21.0,87,0.00,,,0.00,weatherlink.com 1.10,2013-09-02 13:34:00,
2013-09-02 09:49:00,55.3,52.0,29.80,NNW,341,15.0,20.0,89,0.00,,,0.00,weatherlink.com 1.10,2013-09-02 13:49:00,
2013-09-02 10:04:00,55.4,53.0,29.80,NW,304,14.0,21.0,90,0.00,,,0.00,weatherlink.com 1.10,2013-09-02 14:04:00,
2013-09-02 10:19:00,55.3,52.0,29.81,NNW,348,21.0,22.0,89,0.00,,,0.00,weatherlink.com 1.10,2013-09-02 14:19:00,
2013-09-02 10:34:00,55.4,53.0,29.81,NW,324,18.0,23.0,90,0.00,,,0.00,weatherlink.com 1.10,2013-09-02 14:34:00,
2013-09-02 10:49:00,55.7,53.0,29.82,NNW,333,14.0,19.0,89,0.00,,,0.00,weatherlink.com 1.10,2013-09-02 14:49:00,
2013-09-02 11:04:00,56.1,53.0,29.82,WNW,292,14.0,22.0,88,0.00,,,0.00,weatherlink.com 1.10,2013-09-02 15:04:00,
2013-09-02 11:19:00,56.1,52.0,29.82,NNW,336,17.0,21.0,87,0.00,,,0.00,weatherlink.com 1.10,2013-09-02 15:19:00,
2013-09-02 11:34:00,56.6,53.0,29.82,NW,317,16.0,20.0,87,0.00,,,0.00,weatherlink.com 1.10,2013-09-02 15:34:00,
2013-09-02 11:49:00,56.7,52.0,29.82,North,351,12.0,21.0,85,0.00,,,0.00,weatherlink.com 1.10,2013-09-02 15:49:00,
2013-09-02 12:04:00,57.2,53.0,29.82,NNW,339,18.0,19.0,85,0.00,,,0.00,weatherlink.com 1.10,2013-09-02 16:04:00,
2013-09-02 12:19:00,57.5,53.0,29.82,NNW,347,9.0,19.0,84,0.00,,,0.00,weatherlink.com 1.10,2013-09-02 16:19:00,
2013-09-02 12:34:00,57.2,52.0,29.82,NW,315,11.0,18.0,84,0.00,,,0.00,weatherlink.com 1.10,2013-09-02 16:34:00,
2013-09-02 12:49:00,57.6,53.0,29.82,NW,316,17.0,19.0,83,0.00,,,0.00,weatherlink.com 1.10,2013-09-02 16:49:00,
2013-09-02 13:04:00,57.8,53.0,29.82,NNW,338,9.0,19.0,83,0.00,,,0.00,weatherlink.com 1.10,2013-09-02 17:04:00,
2013-09-02 13:19:00,57.7,53.0,29.82,NNW,337,13.0,22.0,84,0.00,,,0.00,weatherlink.com 1.10,2013-09-02 17:19:00,
2013-09-02 13:34:00,58.1,53.0,29.82,NW,315,8.0,19.0,84,0.00,,,0.00,weatherlink.com 1.10,2013-09-02 17:34:00,
2013-09-02 13:49:00,58.2,53.0,29.83,NNW,336,13.0,21.0,83,0.00,,,0.00,weatherlink.com 1.10,2013-09-02 17:49:00,
2013-09-02 14:04:00,57.7,53.0,29.83,NNW,329,14.0,20.0,85,0.00,,,0.00,weatherlink.com 1.10,2013-09-02 18:04:00,
2013-09-02 14:19:00,57.4,53.0,29.83,WNW,296,7.0,20.0,86,0.00,,,0.00,weatherlink.com 1.10,2013-09-02 18:19:00,
2013-09-02 14:34:00,57.9,54.0,29.83,NW,313,12.0,21.0,85,0.00,,,0.00,weatherlink.com 1.10,2013-09-02 18:34:00,
2013-09-02 14:49:00,58.2,53.0,29.83,NNW,344,14.0,22.0,83,0.00,,,0.00,weatherlink.com 1.10,2013-09-02 18:49:00,
2013-09-02 15:04:00,58.3,54.0,29.83,NNW,344,12.0,20.0,84,0.00,,,0.00,weatherlink.com 1.10,2013-09-02 19:04:00,
2013-09-02 15:20:00,58.3,54.0,29.83,NW,319,18.0,19.0,84,0.00,,,0.00,weatherlink.com 1.10,2013-09-02 19:20:00,
2013-09-02 15:35:00,57.9,53.0,29.83,NNW,348,11.0,21.0,84,0.00,,,0.00,weatherlink.com 1.10,2013-09-02 19:35:00,
2013-09-02 15:50:00,57.6,54.0,29.83,NNW,331,15.0,24.0,87,0.00,,,0.00,weatherlink.com 1.10,2013-09-02 19:50:00,
2013-09-02 16:05:00,57.9,54.0,29.83,North,355,10.0,23.0,86,0.00,,,0.00,weatherlink.com 1.10,2013-09-02 20:05:00,
2013-09-02 16:20:00,57.8,54.0,29.83,North,355,15.0,22.0,86,0.00,,,0.00,weatherlink.com 1.10,2013-09-02 20:20:00,
2013-09-02 16:35:00,57.6,53.0,29.84,NNW,340,17.0,22.0,85,0.00,,,0.00,weatherlink.com 1.10,2013-09-02 20:35:00,
2013-09-02 16:50:00,57.8,53.0,29.83,NNW,330,18.0,24.0,85,0.00,,,0.00,weatherlink.com 1.10,2013-09-02 20:50:00,
2013-09-02 17:05:00,57.7,53.0,29.84,NW,316,10.0,22.0,85,0.00,,,0.00,weatherlink.com 1.10,2013-09-02 21:05:00,
2013-09-02 17:20:00,57.7,53.0,29.84,NNW,333,20.0,25.0,85,0.00,,,0.00,weatherlink.com 1.10,2013-09-02 21:20:00,
2013-09-02 17:35:00,57.5,53.0,29.84,North,355,16.0,23.0,85,0.00,,,0.00,weatherlink.com 1.10,2013-09-02 21:35:00,
2013-09-02 17:50:00,57.6,53.0,29.84,NW,317,17.0,24.0,85,0.00,,,0.00,weatherlink.com 1.10,2013-09-02 21:50:00,
2013-09-02 18:05:00,57.4,53.0,29.84,NNW,327,12.0,25.0,85,0.00,,,0.00,weatherlink.com 1.10,2013-09-02 22:05:00,
2013-09-02 18:20:00,57.3,53.0,29.85,NW,319,12.0,23.0,85,0.00,,,0.00,weatherlink.com 1.10,2013-09-02 22:20:00,
2013-09-02 18:35:00,57.2,52.0,29.85,NNW,343,13.0,22.0,83,0.00,,,0.00,weatherlink.com 1.10,2013-09-02 22:35:00,
2013-09-02 18:50:00,57.4,52.0,29.86,NNW,330,9.0,23.0,83,0.00,,,0.00,weatherlink.com 1.10,2013-09-02 22:50:00,
2013-09-02 19:05:00,57.5,52.0,29.86,NE,34,21.0,26.0,81,0.00,,,0.00,weatherlink.com 1.10,2013-09-02 23:05:00,
2013-09-02 19:20:00,57.7,52.0,29.86,North,355,11.0,24.0,80,0.00,,,0.00,weatherlink.com 1.10,2013-09-02 23:20:00,
2013-09-02 19:35:00,57.7,52.0,29.86,NNW,329,16.0,24.0,80,0.00,,,0.00,weatherlink.com 1.10,2013-09-02 23:35:00,
2013-09-02 19:50:00,57.8,51.0,29.86,NW,325,18.0,26.0,79,0.00,,,0.00,weatherlink.com 1.10,2013-09-02 23:50:00,
2013-09-02 20:05:00,57.9,51.0,29.86,NNW,344,15.0,25.0,79,0.00,,,0.00,weatherlink.com 1.10,2013-09-03 00:05:00,
2013-09-02 20:20:00,58.0,51.0,29.86,NNW,339,12.0,25.0,78,0.00,,,0.00,weatherlink.com 1.10,2013-09-03 00:20:00,
2013-09-02 20:35:00,58.2,51.0,29.86,NNW,329,17.0,28.0,78,0.00,,,0.00,weatherlink.com 1.10,2013-09-03 00:35:00,
2013-09-02 20:50:00,58.4,52.0,29.86,North,360,22.0,27.0,79,0.00,,,0.00,weatherlink.com 1.10,2013-09-03 00:50:00,
2013-09-02 21:05:00,58.6,52.0,29.86,NNW,344,17.0,25.0,79,0.00,,,0.00,weatherlink.com 1.10,2013-09-03 01:05:00,
2013-09-02 21:20:00,58.7,52.0,29.86,NW,324,12.0,22.0,78,0.00,,,0.00,weatherlink.com 1.10,2013-09-03 01:20:00,
2013-09-02 21:35:00,58.8,52.0,29.86,NNW,346,10.0,26.0,78,0.00,,,0.00,weatherlink.com 1.10,2013-09-03 01:35:00,
2013-09-02 21:50:00,58.9,52.0,29.86,NW,311,19.0,25.0,78,0.00,,,0.00,weatherlink.com 1.10,2013-09-03 01:50:00,
2013-09-02 22:05:00,58.9,52.0,29.86,NNW,348,24.0,26.0,78,0.00,,,0.00,weatherlink.com 1.10,2013-09-03 02:05:00,
2013-09-02 22:20:00,59.1,52.0,29.86,NNW,346,16.0,25.0,78,0.00,,,0.00,weatherlink.com 1.10,2013-09-03 02:20:00,
2013-09-02 22:35:00,59.2,52.0,29.86,NNE,13,18.0,25.0,78,0.00,,,0.00,weatherlink.com 1.10,2013-09-03 02:35:00,
2013-09-02 22:50:00,59.3,52.0,29.87,NNW,340,16.0,25.0,78,0.00,,,0.00,weatherlink.com 1.10,2013-09-03 02:50:00,
2013-09-02 23:05:00,59.2,53.0,29.86,NNW,342,14.0,24.0,79,0.00,,,0.00,weatherlink.com 1.10,2013-09-03 03:05:00,
2013-09-02 23:20:00,59.2,53.0,29.86,NNW,348,14.0,24.0,80,0.00,,,0.00,weatherlink.com 1.10,2013-09-03 03:20:00,
2013-09-02 23:35:00,59.3,54.0,29.86,North,349,19.0,23.0,81,0.00,,,0.00,weatherlink.com 1.10,2013-09-03 03:35:00,
2013-09-02 23:50:00,59.3,54.0,29.87,NNW,334,11.0,23.0,82,0.00,,,0.00,weatherlink.com 1.10,2013-09-03 03:50:00,